AAY2883 KSFB-KGSP

Flight info

Callsign AAY2883
Flight time N/A
Altitude 31000
Route WORMS JEEMY ACCHE PAINN SHRKS Q77 WIGVO PROVN MCHLN2
Aircraft A320/M-SDE3FGHIRWY/LB1

Departure

Time 2026-04-26 12:33
Airport Orlando Sanford International Airport (KSFB)

Arrival

Time N/A
Airport Greenville-Spartanburg International Airport (KGSP)
Time Latitude Longitude Altitude Speed Heading
2026-04-26 12:13 28.77670 -81.24284 64 ft 0 kts 260°
2026-04-26 12:22 28.77670 -81.24282 64 ft 2 kts 260°
2026-04-26 12:22 28.77673 -81.24263 57 ft 2 kts 260°
2026-04-26 12:23 28.77676 -81.24244 58 ft 3 kts 268°
2026-04-26 12:23 28.77674 -81.24224 57 ft 3 kts 304°
2026-04-26 12:23 28.77662 -81.24210 61 ft 2 kts 322°
2026-04-26 12:23 28.77661 -81.24209 61 ft 0 kts 322°
2026-04-26 12:27 28.77679 -81.24214 64 ft 6 kts 353°
2026-04-26 12:27 28.77720 -81.24219 62 ft 7 kts 353°
2026-04-26 12:28 28.77763 -81.24276 60 ft 11 kts 274°
2026-04-26 12:28 28.77763 -81.24366 64 ft 13 kts 270°
2026-04-26 12:28 28.77763 -81.24470 64 ft 13 kts 270°
2026-04-26 12:28 28.77794 -81.24534 64 ft 8 kts 348°
2026-04-26 12:29 28.77856 -81.24534 59 ft 12 kts 360°
2026-04-26 12:29 28.77932 -81.24534 59 ft 10 kts 360°
2026-04-26 12:29 28.78065 -81.24599 63 ft 11 kts 269°
2026-04-26 12:30 28.78065 -81.24686 63 ft 14 kts 270°
2026-04-26 12:30 28.78064 -81.24812 63 ft 17 kts 270°
2026-04-26 12:30 28.78064 -81.24949 63 ft 18 kts 270°
2026-04-26 12:31 28.78064 -81.25256 64 ft 20 kts 270°
2026-04-26 12:31 28.78063 -81.25423 61 ft 22 kts 270°
2026-04-26 12:31 28.78063 -81.25541 57 ft 11 kts 271°
2026-04-26 12:31 28.78105 -81.25585 64 ft 8 kts 358°
2026-04-26 12:32 28.78167 -81.25577 64 ft 9 kts 33°
2026-04-26 12:32 28.78174 -81.25515 64 ft 11 kts 90°
2026-04-26 12:32 28.78175 -81.24427 63 ft 132 kts 90°
2026-04-26 12:33 28.78183 -81.23181 110 ft 176 kts 89°
2026-04-26 12:33 28.78232 -81.21820 796 ft 172 kts 81°
2026-04-26 12:33 28.78618 -81.20507 1357 ft 182 kts 65°
2026-04-26 12:33 28.79186 -81.19120 1694 ft 204 kts 63°
2026-04-26 12:34 28.79841 -81.17583 1975 ft 227 kts 63°
2026-04-26 12:34 28.80660 -81.15972 2459 ft 239 kts 46°
2026-04-26 12:34 28.81998 -81.14857 3188 ft 241 kts 19°
2026-04-26 12:34 28.83638 -81.14566 3920 ft 240 kts 350°
2026-04-26 12:35 28.85235 -81.15167 4461 ft 251 kts 322°
2026-04-26 12:35 28.86469 -81.16620 5001 ft 261 kts 304°
2026-04-26 12:35 28.87591 -81.18282 5807 ft 266 kts 305°
2026-04-26 12:35 28.88740 -81.19954 6649 ft 269 kts 306°
2026-04-26 12:36 28.89910 -81.21640 7467 ft 272 kts 306°
2026-04-26 12:36 28.91093 -81.23343 8282 ft 276 kts 307°
2026-04-26 12:36 28.92292 -81.25066 9104 ft 279 kts 307°
2026-04-26 12:36 28.93499 -81.26801 9943 ft 282 kts 307°